Location: Ravensburg
(47.7866°N, 9.6124°E)
Time: 11:03:59
(UTC+02:00)

STARS - Pass Details

Date: 19 March 2026
Orbit: 575 x 588 km, 98.2° (Epoch: 18 April)

Event Time Altitude Azimuth Distance (km) Brightness Sun altitude
Rises 02:01:28 0° 20° (NNE) 2,799 ? -38.8°
Reaches altitude 10° 02:03:43 10° 27° (NNE) 1,895 ? -38.6°
Enters shadow 02:03:46 10° 27° (NNE) 1,877 ? -38.6°
